K9UO Weather Reports


Display with metric or nautical units.
time (UTC)temp
F
wind
direction
speed
MPH
gust
MPH
rain 1hr
in
rain 24hr
in
rain mn
in
humidity
%
barometer
mb
20260905081511 73 59 7.0 21.0 0.00 0.00 0.00 84 1015.8
20260905081008 72 54 5.0 10.0 0.00 0.00 0.00 91 1015.7
20260905080503 71 74 4.0 8.0 0.00 0.00 0.00 92 1015.2
20260905080014 71 63 1.0 2.0 0.00 0.00 0.00 92 1014.3
20260905075510 71 63 1.0 2.0 0.00 0.00 0.00 92 1014.1
20260905075009 71 63 1.0 2.0 0.00 0.00 0.00 91 1013.9
20260905074524 71 66 1.0 3.0 0.00 0.00 0.00 90 1013.9
20260905074013 72 65 2.0 3.0 0.00 0.00 0.00 90 1013.7
20260905073511 72 207 0.0 2.0 0.00 0.00 0.00 91 1013.5
20260905073030 72 207 0.0 2.0 0.00 0.00 0.00 91 1013.4
20260905072517 72 207 0.0 2.0 0.00 0.00 0.00 91 1013.3
20260905072003 72 207 0.0 0.0 0.00 0.00 0.00 90 1013.3
20260905071515 72 207 0.0 0.0 0.00 0.00 0.00 90 1013.2
20260905071004 72 207 0.0 1.0 0.00 0.00 0.00 90 1013.1
20260905070503 72 207 0.0 1.0 0.00 0.00 0.00 90 1013.1
20260905070021 72 207 0.0 0.0 0.00 0.00 0.00 90 1012.9
20260905065508 72 207 0.0 0.0 0.00 0.00 0.00 90 1012.8
20260905065008 72 207 0.0 2.0 0.00 0.00 0.00 90 1012.7
20260905064524 72 207 0.0 2.0 0.00 0.00 0.00 90 1012.9
20260905064014 73 207 0.0 2.0 0.00 0.00 0.00 89 1012.8
20260905063512 73 207 1.0 2.0 0.00 0.00 0.00 89 1012.8
20260905063027 73 190 0.0 1.0 0.00 0.00 0.00 89 1012.9
20260905062518 73 190 0.0 2.0 0.00 0.00 0.00 89 1012.9
20260905062015 73 190 0.0 2.0 0.00 0.00 0.00 89 1013.1
20260905061532 73 188 0.0 2.0 0.00 0.00 0.00 89 1013.1
20260905061012 73 171 0.0 2.0 0.00 0.00 0.00 89 1013.1
20260905060508 73 161 0.0 2.0 0.00 0.00 0.00 89 1013.2
20260905060013 73 158 0.0 2.0 0.00 0.00 0.00 89 1013.4
20260905055505 73 158 0.0 2.0 0.00 0.00 0.00 89 1013.4
20260905055009 73 158 0.0 1.0 0.00 0.00 0.00 89 1013.6
20260905054518 73 158 1.0 2.0 0.00 0.00 0.00 90 1013.7
20260905054008 73 158 1.0 2.0 0.00 0.00 0.00 90 1013.8
20260905053512 73 198 0.0 3.0 0.00 0.00 0.00 90 1013.8
20260905053022 74 183 1.0 3.0 0.00 0.00 0.00 90 1013.9
20260905052516 74 190 0.0 2.0 0.00 0.00 0.00 90 1014.0
20260905052016 74 125 0.0 2.0 0.00 0.00 0.00 90 1014.1
20260905051537 74 126 0.0 2.0 0.00 0.00 0.00 90 1014.2
20260905051017 73 125 1.0 2.0 0.00 0.00 0.00 90 1014.2
20260905050517 73 125 1.0 2.0 0.00 0.00 0.00 90 1014.2
20260905050010 74 125 1.0 2.0 0.00 0.00 0.00 90 1014.3
20260905045505 74 125 1.0 2.0 0.00 0.00 0.00 90 1014.3
20260905045006 74 82 0.0 2.0 0.00 0.00 0.00 90 1014.3
20260905044518 74 82 0.0 1.0 0.00 0.00 0.00 90 1014.4
20260905044007 74 82 0.0 1.0 0.00 0.00 0.00 90 1014.4
20260905043508 74 82 0.0 2.0 0.00 0.00 0.00 90 1014.4
20260905043027 74 82 0.0 1.0 0.00 0.00 0.00 90 1014.5
20260905042511 74 72 0.0 2.0 0.00 0.00 0.00 90 1014.6
20260905042013 74 72 0.0 2.0 0.00 0.00 0.00 89 1014.7
20260905041527 74 72 0.0 2.0 0.00 0.00 0.00 90 1014.7
20260905041018 74 72 0.0 1.0 0.00 0.00 0.00 90 1014.7
20260905040515 74 72 0.0 1.0 0.00 0.00 0.00 90 1014.7
20260905040035 74 72 0.0 2.0 0.00 0.00 0.00 90 1014.8
20260905035516 74 72 0.0 2.0 0.00 0.00 0.00 90 1014.8
20260905035005 74 72 0.0 2.0 0.00 0.00 0.00 90 1014.8
20260905034520 74 72 1.0 1.0 0.00 0.00 0.00 90 1014.8
20260905034009 74 72 1.0 2.0 0.00 0.00 0.00 1014.8
20260905033507 74 72 1.0 2.0 0.00 0.00 0.00 89 1014.9
20260905033030 75 69 2.0 2.0 0.00 0.00 0.00 89 1014.8
20260905032510 75 70 0.0 2.0 0.00 0.00 0.00 90 1014.8
20260905032012 75 70 0.0 1.0 0.00 0.00 0.00 90 1014.8
20260905031532 75 70 0.0 2.0 0.00 0.00 0.00 90 1014.9
20260905031013 75 70 0.0 2.0 0.00 0.00 0.00 89 1014.9
20260905030514 75 70 0.0 2.0 0.00 0.00 0.00 89 1014.9
20260905030038 75 70 0.0 1.0 0.00 0.00 0.00 89 1014.9
20260905025515 75 70 1.0 1.0 0.00 0.00 0.00 89 1014.8
20260905025016 75 70 1.0 1.0 0.00 0.00 0.00 89 1014.8
20260905024534 75 70 1.0 2.0 0.00 0.00 0.00 89 1014.7
20260905024007 75 70 1.0 2.0 0.00 0.00 0.00 89 1014.8
20260905023507 75 70 0.0 2.0 0.00 0.00 0.00 89 1014.8
20260905023018 75 69 0.0 2.0 0.00 0.00 0.00 89 1014.7
20260905022508 75 69 1.0 2.0 0.00 0.00 0.00 89 1014.7
20260905022012 75 68 0.0 2.0 0.00 0.00 0.00 89 1014.6
20260905021524 75 68 0.0 3.0 0.00 0.00 0.00 88 1014.7
20260905021012 76 68 2.0 3.0 0.00 0.00 0.00 86 1014.6
20260905020516 76 167 0.0 3.0 0.00 0.00 0.00 87 1014.5
20260905020036 76 167 0.0 3.0 0.00 0.00 0.00 87 1014.3
20260905015514 76 167 0.0 2.0 0.00 0.00 0.00 87 1014.2
20260905015016 77 164 0.0 2.0 0.00 0.00 0.00 86 1014.3
20260905014536 77 164 0.0 0.0 0.00 0.00 0.00 86 1014.2
20260905014016 77 164 0.0 2.0 0.00 0.00 0.00 86 1014.1
20260905013518 77 164 0.0 2.0 0.00 0.00 0.00 86 1014.2
20260905013014 77 164 0.0 2.0 0.00 0.00 0.00 86 1014.1
20260905012506 77 164 0.0 2.0 0.00 0.00 0.00 86 1014.2
20260905012010 77 164 0.0 2.0 0.00 0.00 0.00 85 1014.2
20260905011519 78 164 1.0 2.0 0.00 0.00 0.00 85 1014.2
20260905011015 78 164 0.0 0.0 0.00 0.00 0.00 85 1014.1
20260905010511 78 164 0.0 0.0 0.00 0.00 0.00 84 1014.0
20260905010028 78 164 0.0 0.0 0.00 0.00 0.00 84 1014.1
20260905005513 78 164 0.0 0.0 0.00 0.00 0.00 84 1014.1
20260905005014 78 164 0.0 2.0 0.00 0.00 0.00 84 1014.0
20260905004539 78 164 0.0 2.0 0.00 0.00 0.00 84 1014.0
20260905004014 78 164 0.0 1.0 0.00 0.00 0.00 84 1014.0
20260905003521 79 164 0.0 1.0 0.00 0.00 0.00 84 1014.0
20260905003034 79 164 1.0 3.0 0.00 0.00 0.00 84 1014.1
20260905002517 79 164 1.0 3.0 0.00 0.00 0.00 83 1014.1
20260905002006 80 232 0.0 1.0 0.00 0.00 0.00 82 1014.1
20260905001543 81 232 0.0 1.0 0.00 0.00 0.00 81 1014.1
20260905001016 81 232 0.0 0.0 0.00 0.00 0.00 80 1014.0
20260905000511 81 232 0.0 0.0 0.00 0.00 0.00 79 1014.0
20260905000027 82 232 0.0 2.0 0.00 0.00 0.00 79 1014.0
20260904235513 82 232 0.0 2.0 0.00 0.00 0.00 78 1013.9
20260904235012 82 223 0.0 2.0 0.00 0.00 0.00 78 1013.9
20260904234537 82 223 1.0 2.0 0.00 0.00 0.00 78 1014.0
20260904234006 82 224 1.0 2.0 0.00 0.00 0.00 77 1013.9
20260904233503 83 217 0.0 2.0 0.00 0.00 0.00 76 1014.0
20260904233035 83 227 0.0 3.0 0.00 0.00 0.00 76 1014.0
20260904232507 83 220 1.0 3.0 0.00 0.00 0.00 75 1013.9
20260904232007 84 196 2.0 5.0 0.00 0.00 0.00 75 1013.9
20260904231533 84 225 1.0 5.0 0.00 0.00 0.00 74 1014.0
20260904231010 84 220 2.0 5.0 0.00 0.00 0.00 73 1013.9
20260904230511 84 184 2.0 4.0 0.00 0.00 0.00 73 1013.9
20260904230027 84 198 1.0 5.0 0.00 0.00 0.00 72 1013.9
20260904225503 85 163 2.0 5.0 0.00 0.00 0.00 71 1013.9
20260904225003 85 186 1.0 5.0 0.00 0.00 0.00 71 1013.9
20260904224506 85 183 3.0 5.0 0.00 0.00 0.00 71 1013.9
20260904224004 85 220 2.0 5.0 0.00 0.00 0.00 70 1014.1
20260904223505 85 219 3.0 5.0 0.00 0.00 0.00 69 1014.2
20260904223006 84 197 2.0 5.0 0.00 0.00 0.00 69 1014.2
20260904222503 84 211 2.0 5.0 0.00 0.00 0.00 67 1014.2
20260904222005 84 146 3.0 8.0 0.00 0.00 0.00 67 1014.2
20260904221529 84 207 2.0 8.0 0.00 0.00 0.00 66 1014.2
20260904221009 84 223 2.0 5.0 0.00 0.00 0.00 68 1014.2
20260904220509 84 140 2.0 6.0 0.00 0.00 0.00 67 1014.3
20260904220020 84 128 1.0 6.0 0.00 0.00 0.00 69 1014.3
20260904215511 84 192 2.0 5.0 0.00 0.00 0.00 69 1014.2
20260904215013 84 151 3.0 6.0 0.00 0.00 0.00 69 1014.3
20260904214503 84 139 2.0 10.0 0.00 0.00 0.00 72 1014.3
20260904214003 83 171 3.0 10.0 0.00 0.00 0.00 71 1014.3
20260904213503 83 192 5.0 10.0 0.00 0.00 0.00 69 1014.1
20260904213015 83 144 4.0 11.0 0.00 0.00 0.00 71 1014.1
20260904212504 83 134 3.0 11.0 0.00 0.00 0.00 75 1014.3
20260904212006 83 150 4.0 8.0 0.00 0.00 0.00 75 1014.1
20260904211526 83 144 5.0 8.0 0.00 0.00 0.00 75 1014.1
20260904211007 83 196 3.0 8.0 0.00 0.00 0.00 77 1014.2
20260904210506 83 173 4.0 8.0 0.00 0.00 0.00 75 1014.2
20260904210016 82 153 3.0 8.0 0.00 0.00 0.00 76 1014.1
20260904205510 82 144 3.0 9.0 0.00 0.00 0.00 76 1014.0
20260904205011 82 123 3.0 9.0 0.00 0.00 0.00 78 1013.9
20260904204526 81 109 3.0 9.0 0.00 0.00 0.00 78 1013.8
20260904204012 81 156 5.0 11.0 0.00 0.00 0.00 78 1013.8
20260904203503 81 142 6.0 11.0 0.00 0.00 0.00 76 1014.0
20260904203005 82 136 5.0 9.0 0.00 0.00 0.00 75 1014.3
20260904202505 82 144 4.0 12.0 0.00 0.00 0.00 76 1014.5
20260904202003 83 146 8.0 12.0 0.00 0.00 0.00 73 1014.6
20260904201508 83 76 2.0 10.0 0.00 0.00 0.00 74 1014.8
20260904201005 82 144 6.0 10.0 0.00 0.00 0.00 74 1015.1
20260904200510 81 105 3.0 6.0 0.00 0.00 0.00 77 1015.3
20260904200016 80 101 2.0 3.0 0.00 0.00 0.00 78 1015.4
20260904195510 80 108 2.0 7.0 0.00 0.00 0.00 78 1015.3
20260904195012 80 65 2.0 7.0 0.00 0.00 0.00 78 1015.4
20260904194529 81 136 3.0 8.0 0.00 0.00 0.00 78 1015.3
20260904194013 81 111 2.0 8.0 0.00 0.00 0.00 78 1015.7
20260904193512 81 71 4.0 8.0 0.00 0.00 0.00 78 1015.8
20260904193029 81 66 4.0 11.0 0.00 0.00 0.00 78 1016.0
20260904192502 81 71 5.0 11.0 0.00 0.00 0.00 78 1016.2
20260904192003 82 57 6.0 12.0 0.00 0.00 0.00 76 1016.4
20260904191506 82 48 7.0 12.0 0.00 0.00 0.00 76 1016.5
20260904191006 82 69 5.0 12.0 0.00 0.00 0.00 78 1016.5
20260904190506 82 79 7.0 12.0 0.00 0.00 0.00 76 1016.3
20260904190019 82 41 3.0 14.0 0.00 0.00 0.00 78 1016.5
20260904185508 82 68 8.0 14.0 0.00 0.00 0.00 78 1016.4
20260904185009 81 56 4.0 10.0 0.00 0.00 0.00 79 1016.1
20260904184530 81 49 4.0 8.0 0.00 0.00 0.00 79 1016.3
20260904184012 81 50 3.0 11.0 0.00 0.00 0.00 79 1016.6
20260904183512 82 38 3.0 16.0 0.00 0.00 0.00 78 1017.0
20260904183027 82 48 6.0 16.0 0.00 0.00 0.00 78 1017.1
20260904182516 82 46 3.0 6.0 0.00 0.00 0.00 79 1017.1
20260904182018 81 41 2.0 5.0 0.00 0.00 0.00 80 1016.7
20260904181514 81 32 3.0 5.0 0.00 0.00 0.00 79 1016.3
20260904181008 82 32 3.0 12.0 0.00 0.00 0.00 77 1016.2
20260904180503 83 43 3.0 12.0 0.00 0.00 0.00 75 1016.2
20260904180009 85 76 3.0 10.0 0.00 0.00 0.00 71 1016.3
20260904175508 89 65 3.0 6.0 0.00 0.00 0.00 66 1016.2
20260904175007 91 344 3.0 8.0 0.00 0.00 0.00 61 1016.0
20260904174516 91 311 4.0 9.0 0.00 0.00 0.00 59 1015.9
20260904174009 91 332 4.0 10.0 0.00 0.00 0.00 59 1016.1
20260904173515 91 327 6.0 10.0 0.00 0.00 0.00 56 1016.0
20260904173043 92 342 4.0 9.0 0.00 0.00 0.00 58 1016.1
20260904172513 92 305 3.0 8.0 0.00 0.00 0.00 58 1016.1
20260904172012 92 337 3.0 8.0 0.00 0.00 0.00 58 1016.1
20260904171531 91 327 3.0 8.0 0.00 0.00 0.00 59 1016.1
20260904171016 91 300 2.0 6.0 0.00 0.00 0.00 58 1016.2
20260904170504 91 240 3.0 8.0 0.00 0.00 0.00 59 1016.3
20260904170010 91 333 3.0 8.0 0.00 0.00 0.00 58 1016.4
20260904165504 91 5 4.0 9.0 0.00 0.00 0.00 59 1016.5
20260904165005 91 342 6.0 9.0 0.00 0.00 0.00 57 1016.6
20260904164528 91 298 4.0 9.0 0.00 0.00 0.00 58 1016.7
20260904164008 91 321 3.0 9.0 0.00 0.00 0.00 58 1016.7
20260904163507 91 348 4.0 9.0 0.00 0.00 0.00 58 1016.7
20260904163021 90 325 3.0 11.0 0.00 0.00 0.00 59 1016.7
20260904162510 90 328 3.0 11.0 0.00 0.00 0.00 59 1016.7
20260904162013 90 352 4.0 9.0 0.00 0.00 0.00 59 1016.8
20260904161531 90 321 5.0 9.0 0.00 0.00 0.00 60 1016.8
20260904161015 90 296 4.0 8.0 0.00 0.00 0.00 60 1016.7
20260904160513 90 230 2.0 8.0 0.00 0.00 0.00 62 1016.7
20260904160032 89 329 4.0 8.0 0.00 0.00 0.00 62 1016.7
20260904155504 89 304 3.0 6.0 0.00 0.00 0.00 61 1016.7
20260904155004 89 327 2.0 6.0 0.00 0.00 0.00 63 1016.7
20260904154512 89 9 4.0 9.0 0.00 0.00 0.00 64 1016.7
20260904154008 89 273 5.0 9.0 0.00 0.00 0.00 64 1016.7
20260904153512 88 316 2.0 7.0 0.00 0.00 0.00 66 1016.7
20260904153016 88 318 4.0 7.0 0.00 0.00 0.00 65 1016.6
20260904152511 88 290 3.0 9.0 0.00 0.00 0.00 66 1016.6
20260904152015 88 322 3.0 9.0 0.00 0.00 0.00 67 1016.6
20260904151526 87 307 4.0 6.0 0.00 0.00 0.00 67 1016.6
20260904151014 87 341 3.0 5.0 0.00 0.00 0.00 68 1016.6
20260904150512 87 340 2.0 8.0 0.00 0.00 0.00 67 1016.6
20260904150034 87 318 3.0 9.0 0.00 0.00 0.00 68 1016.6
20260904145514 86 269 3.0 10.0 0.00 0.00 0.00 67 1016.6
20260904145014 86 318 4.0 10.0 0.00 0.00 0.00 68 1016.5
20260904144508 86 341 3.0 5.0 0.00 0.00 0.00 69 1016.4
20260904144007 85 304 1.0 6.0 0.00 0.00 0.00 69 1016.3
20260904143507 85 317 2.0 6.0 0.00 0.00 0.00 70 1016.3
20260904143016 85 325 2.0 5.0 0.00 0.00 0.00 71 1016.3
20260904142509 85 206 2.0 5.0 0.00 0.00 0.00 70 1016.3
20260904142012 84 334 3.0 5.0 0.00 0.00 0.00 70 1016.3
20260904141534 84 255 2.0 5.0 0.00 0.00 0.00 71 1016.3
20260904141013 84 230 1.0 4.0 0.00 0.00 0.00 72 1016.3
20260904140516 84 316 2.0 4.0 0.00 0.00 0.00 72 1016.3
20260904140003 83 233 1.0 4.0 0.00 0.00 0.00 73 1016.3
20260904135507 83 333 1.0 4.0 0.00 0.00 0.00 73 1016.3
20260904135004 83 213 1.0 5.0 0.00 0.00 0.00 73 1016.3
20260904134507 83 211 2.0 9.0 0.00 0.00 0.00 74 1016.2
20260904134007 82 313 2.0 9.0 0.00 0.00 0.00 73 1016.2
20260904133503 82 211 3.0 7.0 0.00 0.00 0.00 74 1016.2
20260904133018 82 279 2.0 7.0 0.00 0.00 0.00 75 1016.1
20260904132511 81 342 2.0 5.0 0.00 0.00 0.00 76 1016.1
20260904132011 81 207 2.0 5.0 0.00 0.00 0.00 77 1016.2
20260904131532 80 240 2.0 4.0 0.00 0.00 0.00 77 1016.1
20260904131011 80 238 2.0 4.0 0.00 0.00 0.00 79 1016.1
20260904130513 79 255 0.0 4.0 0.00 0.00 0.00 80 1016.1
20260904130028 79 201 1.0 3.0 0.00 0.00 0.00 80 1016.1
20260904125513 79 221 1.0 3.0 0.00 0.00 0.00 81 1016.1
20260904125003 78 200 2.0 3.0 0.00 0.00 0.00 81 1016.2
20260904124507 78 193 2.0 3.0 0.00 0.00 0.00 82 1016.3
20260904124004 78 211 1.0 2.0 0.00 0.00 0.00 82 1016.2
20260904123508 77 207 0.0 2.0 0.00 0.00 0.00 82 1016.2
20260904123011 77 207 1.0 2.0 0.00 0.00 0.00 82 1016.3
20260904122507 77 214 1.0 2.0 0.00 0.00 0.00 82 1016.3
20260904122013 77 217 1.0 1.0 0.00 0.00 0.00 82 1016.3
20260904121519 76 217 1.0 2.0 0.00 0.00 0.00 82 1016.3
20260904121011 76 217 0.0 2.0 0.00 0.00 0.00 82 1016.3
20260904120510 76 217 0.0 2.0 0.00 0.00 0.00 82 1016.2
20260904120026 76 217 0.0 2.0 0.00 0.00 0.00 82 1016.2
20260904115514 76 217 0.0 2.0 0.00 0.00 0.00 82 1016.1
20260904115015 76 217 1.0 2.0 0.00 0.00 0.00 82 1016.1
20260904114530 76 205 0.0 2.0 0.00 0.00 0.00 82 1015.9
20260904114004 76 215 0.0 2.0 0.00 0.00 0.00 82 1015.9
20260904113506 76 215 0.0 2.0 0.00 0.00 0.00 1015.7
20260904113009 76 215 1.0 2.0 0.00 0.00 0.00 81 1015.6
20260904112506 76 225 1.0 2.0 0.00 0.00 0.00 81 1015.5
20260904112007 76 209 1.0 4.0 0.00 0.00 0.00 80 1015.4
20260904111513 77 233 1.0 5.0 0.00 0.00 0.00 80 1015.2
20260904111008 77 220 2.0 6.0 0.00 0.00 0.00 80 1014.9
20260904110512 76 221 2.0 6.0 0.00 0.00 0.00 81 1014.7
20260904110025 76 219 3.0 6.0 0.00 0.00 0.00 81 1014.7
20260904105515 76 211 2.0 4.0 0.00 0.00 0.00 81 1014.8
20260904105013 76 209 1.0 3.0 0.00 0.00 0.00 81 1014.9
20260904104534 76 197 1.0 2.0 0.00 0.00 0.00 81 1014.9
20260904104016 76 215 0.0 2.0 0.00 0.00 0.00 81 1014.9
20260904103517 76 215 1.0 2.0 0.00 0.00 0.00 81 1014.9
20260904103008 76 230 1.0 2.0 0.00 0.00 0.00 81 1014.8
20260904102504 76 218 1.0 2.0 0.00 0.00 0.00 81 1014.8
20260904102006 76 219 0.0 2.0 0.00 0.00 0.00 81 1014.9
20260904101514 76 215 0.0 2.0 0.00 0.00 0.00 81 1014.7
20260904101007 76 215 1.0 2.0 0.00 0.00 0.00 81 1014.8
20260904100508 76 215 0.0 2.0 0.00 0.00 0.00 81 1014.9
20260904100018 76 215 1.0 2.0 0.00 0.00 0.00 81 1014.9
20260904095511 76 257 1.0 1.0 0.00 0.00 0.00 81 1014.9
20260904095013 76 273 0.0 2.0 0.00 0.00 0.00 81 1015.0
20260904094534 76 272 0.0 2.0 0.00 0.00 0.00 81 1015.0
20260904094012 76 273 0.0 2.0 0.00 0.00 0.00 81 1015.0
20260904093516 76 222 0.0 3.0 0.00 0.00 0.00 80 1015.0
20260904093031 77 220 0.0 3.0 0.00 0.00 0.00 80 1014.9
20260904092515 77 205 1.0 3.0 0.00 0.00 0.00 80 1014.9
20260904092004 77 211 1.0 3.0 0.00 0.00 0.00 80 1015.0
20260904091525 77 227 1.0 3.0 0.00 0.00 0.00 80 1015.1
20260904091006 77 217 1.0 3.0 0.00 0.00 0.00 80 1014.8
20260904090509 77 205 1.0 4.0 0.00 0.00 0.00 80 1014.7
20260904090015 77 225 2.0 4.0 0.00 0.00 0.00 79 1014.7
20260904085508 77 212 2.0 4.0 0.00 0.00 0.00 80 1014.7
20260904085013 77 216 2.0 4.0 0.00 0.00 0.00 80 1014.4
20260904084523 77 207 2.0 4.0 0.00 0.00 0.00 81 1014.4
20260904084014 77 207 2.0 4.0 0.00 0.00 0.00 81 1014.5
20260904083515 76 207 2.0 5.0 0.00 0.00 0.00 81 1014.5
20260904083033 76 215 2.0 5.0 0.00 0.00 0.00 81 1014.5
20260904082515 76 205 2.0 3.0 0.00 0.00 0.00 82 1014.6
20260904082012 76 222 1.0 3.0 0.00 0.00 0.00 83 1014.7